Birmingham, AL

9:57 PM CDT on April 26, 2018 (GMT -0500)
Birmingham International

Weather History for KBHM - December, 2013

Change the Weather History Date:

Sunday, December 8, 2013

  Actual Average Record
Temperature  
Mean Temperature 49 °F 48 °F  
Max Temperature 58 °F 58 °F 79 °F (1978)
Min Temperature 40 °F 38 °F 16 °F (1917)
Degree Days  
Heating Degree Days 16 18  
Month to date heating degree days 88 134  
Since 1 July heating degree days 616 592  
Moisture  
Dew Point 49 °F    
Average Humidity 90    
Maximum Humidity 100    
Minimum Humidity 79    
Precipitation  
Precipitation 2.57 in 0.16 in 3.39 in (1919)
Month to date precipitation 3.10 1.30  
Year to date precipitation 63.91 50.57  
Snow  
Snow 0.00 in 0.00 in - ()
Month to date snowfall 0.0 0.0  
Since 1 July snowfall 0.0 0.0  
Snow Depth 0.00 in    
Sea Level Pressure  
Sea Level Pressure 30.15 in    
Wind  
Wind Speed 3 mph (ESE)    
Max Wind Speed 12 mph    
Max Gust Speed 15 mph    
Visibility 4 miles    
Events Rain , Thunderstorm    
T = Trace of Precipitation, MM = Missing Value Source: NWS Daily Summary

Daily Weather History Graph

Daily Weather History Graph

Search for Another Location

Airport or City:

Astronomy

Dec. 08, 2013 Rise Set
Actual Time 6:39 AM CST 4:38 PM CST
Civil Twilight 6:11 AM CST 5:06 PM CST
Nautical Twilight 5:40 AM CST 5:37 PM CST
Astronomical Twilight 5:10 AM CST 6:07 PM CST
Moon 11:12 AM CST (12/8) 11:12 PM CST (12/8)
Length of Visible Light 10h 54m
Length of Day
9h 59m
Waxing Crescent, 40% of the Moon is Illuminated
Dec 8
Waxing Crescent
Dec 9
First Quarter
Dec 17
Full
Dec 25
Last Quarter
Jan 1
New

Hourly Weather History & Observations

Time (CST) Temp. Windchill Dew Point Humidity Pressure Visibility Wind Dir Wind Speed Gust Speed Precip Events Conditions
12:53 AM 41.0 °F 37.1 °F 36.0 °F 82% 30.25 in 10.0 mi ENE 5.8 mph - N/A   Overcast
1:09 AM 42.8 °F 38.0 °F 35.6 °F 76% 30.23 in 10.0 mi East 8.1 mph - N/A   Overcast
1:53 AM 42.1 °F - 37.0 °F 82% 30.23 in 10.0 mi Calm Calm - N/A   Overcast
2:53 AM 42.1 °F 40.2 °F 37.9 °F 85% 30.22 in 10.0 mi East 3.5 mph - N/A   Overcast
3:16 AM 42.8 °F 40.1 °F 39.2 °F 87% 30.20 in 10.0 mi East 4.6 mph - N/A   Overcast
3:53 AM 43.0 °F 37.7 °F 39.9 °F 89% 30.19 in 7.0 mi ESE 9.2 mph - N/A   Overcast
4:53 AM 43.0 °F - 42.1 °F 97% 30.22 in 4.0 mi Calm Calm - N/A   Overcast
5:13 AM 42.8 °F 41.1 °F 42.8 °F 100% 30.21 in 2.5 mi South 3.5 mph - N/A   Overcast
5:53 AM 43.0 °F 41.3 °F 42.1 °F 97% 30.20 in 1.8 mi ESE 3.5 mph - N/A   Overcast
6:06 AM 42.8 °F 41.1 °F 42.8 °F 100% 30.21 in 2.0 mi NW 3.5 mph - N/A   Overcast
6:43 AM 44.6 °F - 42.8 °F 93% 30.22 in 1.5 mi Calm Calm - N/A   Overcast
6:53 AM 43.0 °F - 42.1 °F 97% 30.22 in 1.2 mi Calm Calm - N/A   Overcast
7:07 AM 42.8 °F - 42.8 °F 100% 30.21 in 0.8 mi Calm Calm - N/A   Overcast
7:22 AM 44.6 °F - 42.8 °F 93% 30.20 in 1.2 mi Calm Calm - 0.00 in   Light Drizzle
7:30 AM 44.6 °F - 42.8 °F 93% 30.21 in 3.0 mi Calm Calm - 0.00 in   Light Drizzle
7:53 AM 45.0 °F - 43.0 °F 93% 30.24 in 3.0 mi Calm Calm - 0.00 in   Light Drizzle
8:09 AM 44.6 °F 42.2 °F 44.6 °F 100% 30.22 in 1.8 mi ESE 4.6 mph - 0.00 in   Light Drizzle
8:24 AM 46.4 °F 43.5 °F 44.6 °F 93% 30.21 in 1.8 mi SE 5.8 mph - 0.00 in   Light Drizzle
8:45 AM 46.4 °F 45.2 °F 46.4 °F 100% 30.21 in 2.5 mi Variable 3.5 mph - 0.00 in   Light Drizzle
8:53 AM 48.0 °F - 46.0 °F 93% 30.21 in 4.0 mi SE 8.1 mph - 0.01 in   Light Drizzle
9:24 AM 48.2 °F - 46.4 °F 93% 30.21 in 8.0 mi SSE 4.6 mph - 0.00 in   Overcast
9:53 AM 50.0 °F - 48.0 °F 93% 30.20 in 2.5 mi Calm Calm - 0.00 in   Overcast
10:11 AM 50.0 °F - 48.2 °F 94% 30.19 in 5.0 mi Variable 3.5 mph - N/A   Overcast
10:38 AM 51.8 °F - 48.2 °F 88% 30.17 in 2.0 mi SE 5.8 mph - 0.04 in Rain Heavy Rain
10:51 AM 50.0 °F - 48.2 °F 94% 30.19 in 3.0 mi West 4.6 mph - 0.06 in Rain Light Rain
10:53 AM 50.0 °F - 48.9 °F 96% 30.20 in 4.0 mi West 10.4 mph - 0.07 in Rain Light Rain
11:06 AM 50.0 °F - 48.2 °F 94% 30.17 in 1.8 mi SE 4.6 mph - 0.03 in Rain Heavy Rain
11:25 AM 50.0 °F - 50.0 °F 100% 30.17 in 0.8 mi Calm Calm - 0.11 in Rain Heavy Rain
11:37 AM 51.8 °F - 50.0 °F 94% 30.18 in 1.8 mi WNW 4.6 mph - 0.19 in Rain Rain
11:44 AM 51.8 °F - 51.8 °F 100% 30.16 in 2.0 mi Calm Calm - 0.21 in Rain Rain
11:53 AM 51.1 °F - 51.1 °F 100% 30.16 in 1.8 mi Calm Calm - 0.25 in Rain Rain
12:00 PM 51.8 °F - 51.8 °F 100% 30.15 in 2.0 mi Calm Calm - 0.02 in Rain Rain
12:21 PM 51.8 °F - 51.8 °F 100% 30.14 in 5.0 mi Calm Calm - 0.06 in Rain Light Rain
12:53 PM 52.0 °F - 52.0 °F 100% 30.14 in 3.0 mi Calm Calm - 0.09 in Rain Rain
1:17 PM 51.8 °F - 51.8 °F 100% 30.14 in 1.8 mi Calm Calm - 0.05 in Rain Rain
1:21 PM 51.8 °F - 51.8 °F 100% 30.13 in 1.2 mi Calm Calm - 0.07 in Rain , Thunderstorm Heavy Thunderstorms and Rain
1:33 PM 51.8 °F - 51.8 °F 100% 30.10 in 3.0 mi East 5.8 mph - 0.12 in Rain , Thunderstorm Thunderstorms and Rain
1:38 PM 51.8 °F - 51.8 °F 100% 30.11 in 1.8 mi Calm Calm - 0.15 in Rain , Thunderstorm Heavy Thunderstorms and Rain
1:48 PM 51.8 °F - 51.8 °F 100% 30.12 in 2.5 mi WNW 4.6 mph - 0.20 in Rain , Thunderstorm Light Thunderstorms and Rain
1:53 PM 52.0 °F - 52.0 °F 100% 30.12 in 2.5 mi Calm Calm - 0.22 in Rain , Thunderstorm Thunderstorms and Rain
2:02 PM 51.8 °F - 51.8 °F 100% 30.12 in 1.8 mi NW 9.2 mph - 0.05 in Rain , Thunderstorm Heavy Thunderstorms and Rain
2:16 PM 50.0 °F - 50.0 °F 100% 30.10 in 2.0 mi NNE 6.9 mph - 0.12 in Rain , Thunderstorm Heavy Thunderstorms and Rain
2:33 PM 51.8 °F - - N/A% 30.12 in 1.8 mi WNW 6.9 mph - 0.19 in Rain Heavy Rain
2:39 PM 50.0 °F - - N/A% 30.13 in 2.5 mi NW 5.8 mph - 0.22 in Rain Rain
2:51 PM 50.0 °F - 50.0 °F 100% 30.14 in 1.8 mi Calm Calm - 0.26 in Rain Heavy Rain
2:53 PM 50.0 °F - 49.6 °F 99% 30.14 in 1.5 mi Calm Calm - 0.28 in Rain Heavy Rain
2:56 PM 48.2 °F - - N/A% 30.13 in 1.5 mi Calm Calm - 0.01 in Rain , Thunderstorm Heavy Thunderstorms and Rain
3:03 PM 48.2 °F - 48.2 °F 100% 30.13 in 1.5 mi Calm Calm - 0.04 in Rain , Thunderstorm Heavy Thunderstorms and Rain
3:20 PM 48.2 °F - 48.2 °F 100% 30.13 in 2.5 mi Calm Calm - 0.13 in Rain , Thunderstorm Heavy Thunderstorms and Rain
3:26 PM 48.2 °F - 48.2 °F 100% 30.13 in 2.0 mi West 3.5 mph - 0.16 in Rain Heavy Rain
3:53 PM 48.9 °F - 48.6 °F 99% 30.15 in 2.0 mi Calm Calm - 0.27 in Rain Rain
3:59 PM 48.2 °F - 48.2 °F 100% 30.13 in 1.8 mi Calm Calm - 0.03 in Rain Heavy Rain
4:07 PM 48.2 °F - 48.2 °F 100% 30.12 in 3.0 mi ESE 4.6 mph - 0.06 in Rain Rain
4:24 PM 48.2 °F - 48.2 °F 100% 30.14 in 4.0 mi Calm Calm - 0.09 in Rain Rain
4:53 PM 48.9 °F - 48.4 °F 98% 30.14 in 5.0 mi Calm Calm - 0.15 in Rain Rain
5:53 PM 53.1 °F - 53.1 °F 100% 30.10 in 8.0 mi NE 5.8 mph - 0.18 in Rain Light Rain
6:32 PM 53.6 °F - 53.6 °F 100% 30.09 in 10.0 mi East 4.6 mph - 0.06 in Rain Light Rain
6:53 PM 54.0 °F - 54.0 °F 100% 30.08 in 10.0 mi Variable 4.6 mph - 0.07 in Rain Light Rain
7:12 PM 53.6 °F - 53.6 °F 100% 30.11 in 2.5 mi Variable 3.5 mph - 0.03 in Rain Heavy Rain
7:14 PM 53.6 °F - 53.6 °F 100% 30.11 in 1.8 mi NW 4.6 mph - 0.08 in Rain Heavy Rain
7:22 PM 53.6 °F - 53.6 °F 100% 30.11 in 3.0 mi Calm Calm - 0.14 in Rain Rain
7:46 PM 53.6 °F - 53.6 °F 100% 30.09 in 4.0 mi East 3.5 mph - 0.21 in Rain Heavy Rain
7:53 PM 54.0 °F - 54.0 °F 100% 30.10 in 4.0 mi Calm Calm - 0.24 in Rain Rain
8:40 PM 55.4 °F - 55.4 °F 100% 30.08 in 5.0 mi Calm Calm - 0.16 in Rain Light Rain
8:53 PM 55.0 °F - 55.0 °F 100% 30.08 in 4.0 mi ESE 5.8 mph - 0.19 in Rain Rain
9:38 PM 55.4 °F - 55.4 °F 100% 30.10 in 2.0 mi Calm Calm - 0.20 in Rain Heavy Rain
9:48 PM 55.4 °F - 55.4 °F 100% 30.09 in 4.0 mi ESE 4.6 mph - 0.25 in Rain Rain
9:53 PM 55.9 °F - 55.9 °F 100% 30.08 in 4.0 mi SE 6.9 mph - 0.26 in Rain Rain
10:13 PM 57.2 °F - 57.2 °F 100% 30.09 in 4.0 mi Calm Calm - 0.05 in Rain Rain
10:53 PM 57.0 °F - 57.0 °F 100% 30.07 in 5.0 mi ESE 5.8 mph - 0.16 in Rain Rain
10:58 PM 57.2 °F - 57.2 °F 100% 30.08 in 5.0 mi Variable 3.5 mph - 0.02 in Rain Rain
11:13 PM 57.2 °F - 57.2 °F 100% 30.09 in 4.0 mi South 5.8 mph - 0.06 in Rain Rain
11:26 PM 57.2 °F - 57.2 °F 100% 30.08 in 4.0 mi Calm Calm - 0.12 in Rain Rain
11:53 PM 57.0 °F - 57.0 °F 100% 30.08 in 10.0 mi Calm Calm - 0.13 in   Overcast